CZ-6A DEB, 56245

Orbit data source: Space-Track

CZ-6A DEB, 56245 is space debris in SSO originally from a launch on Fri, 11 Nov 2022 UTC launched from the Taiyaun Space Center, China (TSC). Debris objects in space refer to the collection of defunct objects orbiting the Earth. Examples of debris include non-operational satellites, rocket bodies, and fragments generated from explosions, collisions, or faulty payload assembly.

Loading next visibility...
Identifier
56245, 2022-151ABM
Orbit
SSO
Country
Flag of CNCN / PRC
Related business
Manufacturer
SAST
Mission
Spacecraft
Bus & Motor
Unknown
Mass
Unknown
Launch date (UTC)
2022-11-11 (3 years ago)
Launch vehicle
Unknown
Launch site
Taiyaun Space Center, China (TSC)
Object type
Payload
Rocket body
Debris
Shape & HBR
Unknown shape, 1.1 m
Radar Cross Section
Small (<0.1 m²)

Expand to show TLE details & history
Last TLE update: 2 days ago

TLE from 2 days ago
0 CZ-6A DEB
1 56245U 22151ABM 25351.44188138  .00004365  00000-0  19586-2 0  9995
2 56245  98.8073 354.1602 0047931 102.1806 258.4746 14.22337238146026
Epoch: 2025-12-17T10:36Z
TLE epoch observation values (Epoch: 2025-12-17T10:36:18.551Z)
Latitude
-0.00001°
Longitude
108.77122°
Altitude
827.425 km
Speed
7.436 km/s
True Right ascension
23h 36m 38s
True Declination
0° 00' 00"
Sunlit
Object was in daylight at epoch
Visualization orbit readout
Latitude
Unknown
Longitude
Unknown
Altitude
Unknown
Speed
Unknown
Apparent Right ascension
Unknown
Apparent Declination
Unknown
Sunlit
N/A
Visualization observer readout
Local Sidereal Time
06:26:19
Azimuth
Unknown
Elevation
Unknown
Doppler factor
Unknown
Orbital elements
Apogee altitude
849.095 km
Perigee altitude
780.144 km
Semi-major axis
7,192.756 km
Eccentricity
0.00479
Inclination
98.8073°
RAAN
354.1602°
Arg. of periapsis
102.1806°
True anomaly
257.93708°
Mean anomaly
258.4746°
Eccentric anomaly
258.20577°
Mean motion
3.55795 °/min
Orbital period
101.18 mins
BSTAR
0.0019586
Loading maneuver chart data...
Computing Atmospheric mass density...
Loading historical data...
Loading historical data...
Loading historical data...
Loading historical data...
Loading historical data...
Loading historical data...
Loading historical data...

Documentation

Showing up to 5 results
|